Location: Anjeux
(47.8815°N, 6.2076°E)
Time: 20:39:03
(UTC+00:00)

KKS-1 - Pass Details

Date: 30 November 2021
Orbit: 635 x 650 km, 98.2° (Epoch: 20 January)

Event Time Altitude Azimuth Distance (km) Brightness Sun altitude
Rises 06:17:56 0° 103° (ESE) 2,966 ? -7.4°
Maximum altitude 06:22:54 10° 54° (NE) 2,066 ? -6.6°
Drops below altitude 10° 06:23:05 10° 52° (NE) 2,068 ? -6.6°
Sets 06:27:53 0° 5° (N) 2,981 ? -5.9°
